TimePDT,TemperatureF,Dew PointF,Humidity,Sea Level PressureIn,VisibilityMPH,Wind Direction,Wind SpeedMPH,Gust SpeedMPH,PrecipitationIn,Events,Conditions,WindDirDegrees,DateUTC
12:09 AM,53.1,51.1,93,30.05,1.8,WNW,5.8,-,N/A,,Overcast,290,2013-08-01 07:09:00
12:26 AM,52.0,51.1,97,30.05,1.0,West,6.9,-,N/A,,Mist,280,2013-08-01 07:26:00
12:53 AM,53.1,51.1,93,30.05,1.5,West,8.1,-,N/A,,Overcast,280,2013-08-01 07:53:00
1:13 AM,53.1,51.1,93,30.04,0.5,WNW,11.5,-,N/A,Fog,Fog,290,2013-08-01 08:13:00
1:53 AM,53.1,52.0,96,30.03,0.8,WNW,15.0,23.0,N/A,,Mist,300,2013-08-01 08:53:00
2:53 AM,53.1,52.0,96,30.05,0.8,WNW,10.4,-,N/A,,Mist,290,2013-08-01 09:53:00
3:03 AM,53.1,52.0,96,30.05,1.0,WNW,10.4,-,N/A,,Mist,290,2013-08-01 10:03:00
3:41 AM,53.1,52.0,96,30.05,1.2,WNW,8.1,-,N/A,,Overcast,290,2013-08-01 10:41:00
3:53 AM,53.1,52.0,96,30.05,1.2,WNW,6.9,-,N/A,,Overcast,290,2013-08-01 10:53:00
4:24 AM,53.1,52.0,96,30.05,2.0,West,4.6,-,N/A,,Overcast,280,2013-08-01 11:24:00
4:53 AM,53.1,52.0,96,30.05,2.5,WSW,3.5,-,N/A,,Overcast,250,2013-08-01 11:53:00
5:00 AM,53.1,52.0,96,30.05,5.0,WSW,3.5,-,N/A,,Overcast,250,2013-08-01 12:00:00
5:53 AM,53.1,51.1,93,30.05,8.0,Calm,Calm,-,N/A,,Overcast,0,2013-08-01 12:53:00
6:31 AM,53.1,52.0,96,30.05,1.8,Calm,Calm,-,N/A,,Overcast,0,2013-08-01 13:31:00
6:45 AM,53.1,52.0,96,30.05,3.0,NNW,3.5,-,N/A,,Overcast,330,2013-08-01 13:45:00
6:53 AM,53.1,52.0,96,30.05,3.0,WNW,4.6,-,N/A,,Overcast,290,2013-08-01 13:53:00
7:53 AM,54.0,52.0,93,30.06,8.0,West,6.9,-,N/A,,Overcast,280,2013-08-01 14:53:00
8:53 AM,55.9,53.1,90,30.05,10.0,Calm,Calm,-,N/A,,Overcast,0,2013-08-01 15:53:00
9:53 AM,55.9,52.0,87,30.04,10.0,WNW,6.9,-,N/A,,Overcast,300,2013-08-01 16:53:00
10:29 AM,55.9,52.0,87,30.05,10.0,NW,6.9,-,N/A,,Overcast,310,2013-08-01 17:29:00
10:53 AM,57.0,52.0,83,30.05,10.0,NW,5.8,-,N/A,,Overcast,310,2013-08-01 17:53:00
11:53 AM,59.0,52.0,78,30.06,10.0,WNW,6.9,-,N/A,,Overcast,300,2013-08-01 18:53:00
12:31 PM,60.1,53.1,78,30.06,10.0,NW,6.9,-,N/A,,Overcast,320,2013-08-01 19:31:00
12:53 PM,62.1,53.1,72,30.05,10.0,NNW,9.2,-,N/A,,Overcast,330,2013-08-01 19:53:00
1:22 PM,61.0,53.1,75,30.05,10.0,NW,6.9,-,N/A,,Scattered Clouds,310,2013-08-01 20:22:00
1:53 PM,61.0,52.0,72,30.04,10.0,NNW,9.2,18.4,N/A,,Clear,330,2013-08-01 20:53:00
2:53 PM,62.1,52.0,70,30.05,10.0,NW,8.1,-,N/A,,Clear,320,2013-08-01 21:53:00
3:53 PM,63.0,53.1,70,30.03,10.0,NNW,6.9,-,N/A,,Clear,330,2013-08-01 22:53:00
4:53 PM,64.0,53.1,67,30.03,10.0,NNW,5.8,-,N/A,,Clear,340,2013-08-01 23:53:00
5:53 PM,63.0,52.0,67,30.04,10.0,NW,13.8,-,N/A,,Clear,310,2013-08-02 00:53:00
6:53 PM,59.0,52.0,78,30.04,10.0,WNW,13.8,19.6,N/A,,Partly Cloudy,300,2013-08-02 01:53:00
7:05 PM,57.9,52.0,81,30.04,10.0,NW,10.4,-,N/A,,Mostly Cloudy,310,2013-08-02 02:05:00
7:53 PM,57.9,52.0,81,30.04,10.0,WNW,9.2,-,N/A,,Overcast,300,2013-08-02 02:53:00
8:53 PM,57.0,52.0,83,30.04,10.0,West,11.5,-,N/A,,Overcast,280,2013-08-02 03:53:00
9:53 PM,57.0,53.1,87,30.06,10.0,West,8.1,-,N/A,,Overcast,280,2013-08-02 04:53:00
10:53 PM,57.0,53.1,87,30.05,10.0,West,10.4,-,N/A,,Overcast,280,2013-08-02 05:53:00
11:53 PM,57.0,53.1,87,30.05,10.0,West,10.4,-,N/A,,Overcast,280,2013-08-02 06:53:00